sat.trackr.live / text

‹ back to catalog

HULIANWANG DIGUI-142

NORAD 67440 · 2026-007F

PAYLOAD ACTIVE UNKNOWN

§ Identity

Operator
Country
PRC
Launch date
2026-01-13
Launch site
WSC
Launch vehicle
Mass (kg)
RCS (m²)

External: N2YO · Heavens-Above · Gunter

§ Orbital elements

Epoch: 2026-05-25T01:24:59.792832Z

Period
108.33 min
Inclination
50.0099°
Eccentricity
0.0000873
Mean motion
13.29325266 rev/d
Perigee alt
1,148.7 km
Apogee alt
1,150.0 km
Semi-major
7,527.4 km
B*
8.1515e-5
RAAN
168.6958°
Arg perigee
281.9398°
Mean anomaly
78.1376°
Rev number
1,771

§ Raw data

HULIANWANG DIGUI-1421 67440U 26007F   26145.05902538 -.00000086  00000+0  81515-4 0  99942 67440  50.0099 168.6958 0000873 281.9398  78.1376 13.29325266 17714

JSON: /api/v1/satellites/67440 · /tle

For live sub-satellite position, see the globe view (requires WebGL).

§ Visibility from observer

Set your observer location to see the next 7 days of passes ≥ 10°. The values pass through the URL so the page stays shareable.

No JS? Fill the form by hand. The geolocation button needs JavaScript.